Theta_e
322 324 326 331 335 332 334 335 336 336 338 339 335 329 329 328 338 338 335 335 338 343 348 350 350 349 348 345 343 343 343 342 342 341 339 338 337 338 338 338 338 337 338
318 320 323 328 332 330 333 335 335 331 329 330 328 330 327 330 339 339 336 336 333 338 343 347 349 349 349 346 343 342 342 342 342 341 340 337 337 336 336 336 336 336 337
314 315 318 324 320 324 327 331 331 331 327 328 326 327 328 331 337 337 338 336 335 331 334 341 344 347 347 347 345 342 341 341 341 341 340 338 336 336 335 335 335 335 336
311 311 313 313 315 317 320 320 323 328 328 324 323 324 326 331 333 335 337 337 337 337 331 331 335 340 343 346 348 346 343 341 341 341 340 338 337 336 335 335 335 334 335
308 308 308 309 310 311 312 313 314 317 322 327 325 321 323 327 330 335 334 336 337 337 336 331 329 331 335 341 344 347 346 344 342 342 340 339 337 336 335 335 335 334 334
306 306 306 306 306 305 306 307 308 311 313 319 324 325 329 330 331 331 332 335 337 337 337 336 332 331 328 334 339 344 348 346 344 343 342 340 338 336 335 335 334 334 334
304 303 304 302 302 302 303 304 304 305 308 309 314 317 321 325 327 330 332 332 333 335 335 336 335 333 332 329 333 340 345 348 346 344 342 340 338 336 335 334 334 334 334
302 300 298 298 298 298 299 299 300 299 303 304 305 308 309 314 319 324 328 331 331 333 333 335 334 334 334 333 330 333 339 343 345 344 341 339 337 336 335 335 334 334 334
296 295 295 295 294 295 295 295 295 296 295 299 299 303 304 305 308 314 316 321 326 326 328 330 332 333 334 335 331 329 327 329 337 342 341 339 337 337 336 335 334 334 334
294 293 293 292 292 293 293 293 295 295 295 293 297 301 300 302 304 304 310 312 313 318 323 325 327 328 329 331 332 327 321 320 324 335 338 338 338 337 336 335 334 334 334
292 292 291 291 291 292 292 293 292 293 294 294 294 294 295 297 300 302 301 304 308 312 316 322 327 329 331 332 332 329 319 316 319 327 333 336 337 337 336 335 335 334 334
290 290 291 291 291 291 291 291 292 292 292 293 294 295 294 294 295 296 296 297 297 303 309 313 314 320 328 331 330 323 317 315 315 321 327 331 334 335 335 335 335 335 335
287 288 289 289 290 290 290 290 290 291 291 291 292 292 294 294 296 296 294 294 295 299 302 307 311 315 320 325 330 321 319 312 313 316 320 323 327 329 331 332 334 335 335
287 288 287 288 289 289 288 289 289 289 290 290 289 290 291 293 294 295 294 293 291 293 296 298 305 310 313 315 318 316 323 311 309 311 314 317 320 322 324 326 328 330 332
288 287 287 286 286 286 285 287 287 288 288 288 288 288 287 289 291 292 294 295 293 289 291 296 299 307 310 313 315 321 325 317 309 308 308 312 316 318 320 321 323 325 327
286 287 286 286 284 285 284 285 286 286 285 285 286 285 286 286 287 288 292 293 294 293 290 296 298 301 304 307 309 311 318 314 311 305 305 306 309 314 316 317 317 320 322
287 286 284 284 282 283 283 283 284 282 282 282 283 284 284 284 284 286 287 288 290 291 290 294 299 302 302 303 306 309 310 314 323 311 308 303 304 307 309 313 314 315 317
284 284 283 282 281 281 282 282 283 281 280 279 279 280 281 283 282 285 287 289 289 292 291 291 296 297 299 302 304 304 307 312 316 315 308 307 304 303 304 305 308 309 310
282 283 281 280 280 280 281 282 283 280 279 279 278 278 279 281 282 283 285 284 286 286 288 292 294 297 299 303 303 304 304 309 316 314 307 305 302 302 303 304 303 305 307
280 281 280 279 280 280 281 281 280 278 277 278 278 278 279 281 281 282 283 282 283 284 286 288 291 294 298 298 294 294 292 299 300 311 312 306 305 302 302 302 303 302 303
280 280 280 278 279 280 281 279 278 277 276 275 277 277 279 281 282 282 282 281 281 282 283 284 286 287 285 284 284 287 288 293 300 294 302 312 312 309 307 301 304 302 301
278 277 277 277 277 279 281 281 278 276 275 275 274 275 278 279 279 280 281 282 281 280 280 281 281 280 281 282 284 284 286 293 298 291 288 302 302 301 298 295 296 297 300
274 276 273 274 274 277 280 280 279 275 273 272 274 274 276 277 278 276 278 279 279 280 282 280 279 279 279 281 283 283 284 287 290 284 286 290 290 288 290 292 294 294 295
269 269 272 273 273 276 280 279 278 269 269 271 273 274 274 275 277 276 275 275 275 276 279 280 279 279 280 281 283 284 284 285 285 284 284 281 286 286 286 287 291 291 292
273 274 269 270 272 272 280 279 274 271 267 269 272 274 275 275 278 278 274 273 273 274 278 280 280 281 281 282 282 282 281 280 280 281 283 281 284 285 285 285 286 288 289
274 276 274 272 276 269 279 280 275 269 271 271 271 273 278 277 278 277 273 272 270 271 273 274 276 277 278 278 280 278 280 277 278 278 280 280 282 282 283 285 285 285 285
Wind_Speed
6 5 4 4 6 6 5 7 8 8 8 6 5 5 9 15 13 6 3 14 14 16 20 21 21 20 18 17 16 17 18 19 19 19 18 16 17 16 16 18 18 17 18
7 6 6 5 5 4 3 4 4 3 1 1 3 6 0 14 10 9 4 7 13 15 17 19 20 20 20 20 18 17 19 20 20 20 20 19 18 18 17 17 17 18 19
10 9 8 7 6 6 8 3 4 4 3 3 4 5 8 16 12 13 9 4 8 11 12 15 18 20 20 21 21 21 21 20 21 22 21 21 21 20 19 19 18 19 19
12 9 8 8 9 8 7 8 7 4 3 2 3 4 4 8 7 10 10 7 6 6 10 11 12 15 18 21 21 21 22 22 22 22 22 21 22 22 21 21 20 19 20
10 8 8 8 10 8 8 8 7 6 4 3 4 4 3 4 8 8 11 9 8 7 6 11 15 14 13 17 21 23 23 22 23 24 23 22 22 22 22 22 22 21 21
9 6 7 9 9 8 9 10 10 8 4 7 6 5 5 7 8 9 11 9 6 7 7 7 7 10 16 18 19 24 25 24 24 24 24 24 24 23 23 23 23 23 23
10 7 8 9 10 9 10 11 8 10 6 9 3 4 4 6 7 7 7 7 8 9 7 8 6 6 7 21 23 23 26 25 26 25 25 25 25 25 25 24 25 25 26
14 13 12 10 12 9 11 12 11 7 4 9 4 5 4 4 4 5 5 7 9 6 6 9 10 9 9 8 15 25 26 26 26 26 26 26 26 25 25 26 26 26 26
14 13 13 11 10 8 7 8 9 11 7 5 9 4 4 3 5 4 2 3 5 4 5 6 7 8 10 9 12 17 23 21 25 26 26 26 26 26 26 26 26 27 27
12 13 11 10 9 7 9 8 8 8 9 8 6 6 5 4 4 6 3 4 5 5 6 6 8 9 12 10 12 15 18 21 20 24 25 26 26 26 26 26 26 27 27
10 12 11 10 10 8 9 9 10 8 6 7 7 8 9 7 7 5 11 5 5 6 6 5 7 7 9 10 9 11 17 20 22 22 24 26 25 26 26 25 26 27 27
7 11 11 10 9 9 9 8 8 9 7 6 6 7 7 5 7 6 5 11 12 8 6 9 6 6 6 7 8 13 15 19 22 25 27 27 24 26 26 26 26 27 28
6 9 10 10 9 10 10 9 8 8 8 7 8 7 7 8 7 7 9 11 12 9 7 9 9 5 5 5 6 10 11 14 17 21 24 25 24 24 24 26 27 28 28
6 9 9 10 11 12 11 10 7 7 8 7 10 9 8 8 8 8 8 9 14 14 12 14 7 9 5 5 9 12 7 13 17 21 23 23 21 20 22 24 25 27 28
8 8 9 9 11 11 11 11 8 9 9 8 8 8 8 7 7 9 9 9 10 13 16 4 4 4 6 7 7 9 10 11 15 18 19 21 23 28 27 22 25 26 27
7 9 10 10 12 12 12 11 9 11 10 9 8 10 9 7 9 8 8 8 9 12 17 11 10 12 13 12 13 14 13 15 13 14 15 16 19 24 26 25 23 25 27
7 9 9 10 12 12 12 11 12 12 13 12 12 12 11 12 8 8 8 8 9 11 16 12 11 11 15 12 12 11 12 13 11 16 12 13 18 19 21 25 25 25 26
6 8 10 10 12 11 11 12 12 13 14 14 13 13 13 11 12 10 8 8 9 12 13 17 13 11 15 15 14 14 12 11 13 12 18 16 16 16 14 16 20 22 22
8 9 10 11 11 11 10 11 11 12 12 13 14 14 14 15 12 10 9 9 9 10 10 10 9 8 10 10 12 12 11 10 9 16 17 17 19 17 17 19 17 18 20
8 9 10 10 10 10 10 11 13 12 12 12 14 13 13 14 13 13 11 12 12 11 10 8 8 8 9 5 7 7 8 7 10 10 6 7 11 15 19 16 17 15 14
8 9 9 11 10 11 10 12 10 11 11 12 14 15 14 22 24 20 11 13 15 12 10 10 9 7 8 8 9 7 7 10 3 9 7 4 4 4 4 2 8 11 14
8 9 9 10 10 10 20 20 15 10 11 12 12 14 14 19 19 24 25 26 22 15 13 11 9 10 11 10 8 7 7 5 4 10 8 5 8 8 8 8 16 9 9
4 7 8 8 10 10 23 21 18 9 9 9 11 10 12 11 18 15 20 23 22 27 23 13 13 12 11 14 11 9 8 6 4 8 8 4 6 5 6 9 17 16 13
4 3 7 9 8 10 23 22 18 5 6 7 11 9 11 14 19 17 14 15 14 15 16 12 14 13 13 15 13 8 9 5 3 7 12 4 5 3 3 4 18 19 19
4 7 3 5 11 9 23 21 13 5 5 7 8 11 12 13 27 27 15 15 15 16 18 25 25 26 27 29 27 11 15 10 5 5 12 4 6 6 3 5 6 16 15
4 7 9 9 16 7 20 22 13 3 6 6 6 9 23 20 28 29 15 13 14 14 14 15 13 17 19 21 28 17 10 13 8 6 11 7 7 6 4 2 7 9 8
Wind_Direction
18 354 354 1 8 2 3 348 331 311 280 293 23 55 5 315 276 253 206 199 196 197 195 190 187 182 184 192 199 198 196 196 196 196 197 195 194 194 191 186 184 185 182
11 355 355 349 5 338 334 336 330 352 15 302 101 177 343 301 307 305 244 192 205 205 204 195 192 190 192 195 199 203 202 200 200 200 199 198 193 198 197 193 192 185 191
15 2 354 12 359 339 351 322 338 332 349 276 242 227 218 216 217 266 267 253 217 233 232 209 197 196 200 203 203 205 205 202 203 203 205 202 197 195 197 195 197 197 191
18 9 10 4 356 1 6 4 354 345 341 297 266 181 199 281 259 257 276 234 195 224 245 249 239 212 208 210 208 209 208 204 205 205 207 206 203 200 197 196 201 202 195
18 20 12 5 9 6 2 357 349 349 327 330 283 250 251 236 257 258 260 260 245 214 215 222 228 235 223 221 217 209 212 211 209 207 206 206 205 203 200 197 198 202 200
16 25 16 24 16 8 3 1 354 343 335 337 316 290 246 234 226 238 248 251 240 244 231 213 210 227 229 226 229 225 210 210 214 212 211 208 205 203 202 200 197 199 199
14 22 28 24 17 16 7 2 350 354 335 4 310 331 280 250 231 234 237 237 243 245 243 240 212 208 215 222 225 228 228 217 214 216 214 210 208 205 203 201 199 199 200
30 38 27 22 25 11 12 4 7 348 319 0 345 279 313 326 338 251 228 231 233 235 237 243 246 233 218 213 219 226 231 226 219 216 216 211 207 207 204 202 202 200 201
45 32 28 24 15 13 12 5 4 2 346 330 347 290 333 292 343 305 315 253 262 249 248 248 248 254 249 224 212 222 224 225 225 217 217 213 211 207 206 205 204 203 200
33 28 23 17 6 4 4 356 356 352 342 336 332 359 336 295 309 310 301 329 301 275 260 253 243 241 247 245 225 215 213 218 226 222 221 213 212 211 210 207 205 205 203
23 24 13 8 9 6 359 355 351 347 335 329 323 318 315 323 261 281 290 297 320 319 307 299 276 261 249 240 238 230 213 212 214 218 228 225 214 212 211 209 206 206 206
13 19 13 9 4 359 359 358 352 341 337 323 315 313 306 301 314 304 299 305 296 285 307 297 278 272 285 266 247 245 221 216 213 216 222 222 218 213 211 210 208 206 207
16 13 12 10 8 6 0 357 350 348 340 341 330 319 309 301 299 291 290 291 285 293 290 280 288 274 280 292 268 246 236 227 228 223 219 224 221 219 210 211 208 208 207
24 10 11 13 15 10 4 360 1 353 351 348 343 336 322 304 298 294 285 289 290 284 290 271 254 278 279 282 281 276 255 227 220 224 218 219 225 222 218 210 211 207 208
23 14 13 14 18 15 6 2 359 8 359 355 341 349 332 318 317 315 293 276 274 283 287 296 312 316 328 314 298 291 276 250 221 220 225 216 205 226 223 214 209 205 208
22 23 21 18 18 15 10 6 3 11 5 4 1 349 342 334 317 312 287 296 280 277 277 290 294 304 305 309 311 319 314 284 241 223 222 224 226 228 224 213 209 207 206
26 36 26 23 21 14 11 8 18 13 10 6 359 353 1 345 330 307 299 286 281 281 279 283 291 297 293 292 294 305 308 312 280 254 230 227 232 228 228 223 220 210 205
12 43 34 29 27 13 13 11 25 16 13 6 2 357 359 344 331 331 323 306 283 291 266 282 281 283 278 275 279 281 289 284 291 262 226 219 233 230 227 232 226 216 211
29 41 42 33 30 14 12 17 27 24 12 9 6 360 354 346 351 345 339 341 325 316 302 299 295 292 297 286 278 276 279 297 305 294 226 209 200 209 217 223 229 235 221
38 40 47 33 28 19 22 27 31 22 17 9 11 0 353 356 2 354 0 352 338 330 318 297 283 291 279 360 5 2 340 321 317 320 264 223 218 215 215 205 225 227 236
44 39 49 33 24 29 30 39 28 29 16 11 12 7 4 9 12 15 8 360 353 353 356 8 13 24 12 356 352 331 306 303 302 12 324 320 300 325 7 156 243 227 220
54 47 42 34 24 34 35 46 40 27 14 13 6 9 8 5 12 14 16 11 7 5 10 17 17 19 10 349 338 320 310 318 316 37 333 330 351 40 17 23 17 343 245
57 58 44 27 22 30 41 36 38 27 15 2 5 360 8 3 21 10 13 14 7 7 17 12 19 14 1 350 338 347 343 307 7 358 347 312 6 40 9 20 27 32 29
83 75 59 39 21 22 41 39 26 6 7 355 5 3 7 11 23 21 12 19 11 5 9 16 15 10 8 2 359 350 339 294 133 35 9 336 340 350 41 19 30 32 34
81 71 58 56 40 11 36 42 27 4 356 359 359 357 29 21 24 28 20 20 14 8 2 12 19 19 17 16 18 6 19 21 24 9 16 326 345 319 16 30 23 26 22
116 92 70 48 37 13 22 31 42 357 14 8 1 5 23 29 32 30 25 17 20 4 358 2 9 13 15 14 15 21 15 22 3 14 356 344 342 344 334 44 32 14 4